Albany, GA

12:08 AM EDT on April 24, 2017 (GMT -0400)
Southwest Georgia Regional

Weather History for KABY - October, 2014

Change the Weather History Date:

Friday, October 24, 2014

  Actual Average Record
Temperature  
Mean Temperature 63 °F 66 °F  
Max Temperature 76 °F 78 °F 91 °F (1984)
Min Temperature 50 °F 53 °F 33 °F (1987)
Degree Days  
Heating Degree Days 2 3  
Month to date heating degree days 25 24  
Since 1 July heating degree days 25 25  
Cooling Degree Days 0 3  
Month to date cooling degree days 117 127  
Year to date cooling degree days 2460 2483  
Growing Degree Days 12 (Base 50)    
Moisture  
Dew Point 49 °F    
Average Humidity 64    
Maximum Humidity 96    
Minimum Humidity 31    
Precipitation  
Precipitation 0.00 in 0.08 in 3.27 in (2008)
Month to date precipitation 2.01  
Year to date precipitation 41.05  
Sea Level Pressure  
Sea Level Pressure 30.04 in    
Wind  
Wind Speed 1 mph (WNW)    
Max Wind Speed 7 mph    
Max Gust Speed 9 mph    
Visibility 10 miles    
Events      
T = Trace of Precipitation, MM = Missing Value Source: NWS Daily Summary

Daily Weather History Graph

Daily Weather History Graph

Search for Another Location

Airport or City:

Trip Planner

Search our weather history database for the weather conditions in past years. The results will help you decide how hot, cold, wet, or windy it might be!

Date:

Astronomy

Oct. 24, 2014 Rise Set
Actual Time 7:46 AM EDT 6:54 PM EDT
Civil Twilight 7:21 AM EDT 7:19 PM EDT
Nautical Twilight 6:53 AM EDT 7:48 PM EDT
Astronomical Twilight 6:24 AM EDT 8:16 PM EDT
Moon 8:22 AM EDT 7:37 PM EDT
Length of Visible Light 11h 58m
Length of Day
11h 08m
New Moon, 1% of the Moon is Illuminated
Oct 24
New Moon
Oct 30
First Quarter
Nov 6
Full
Nov 14
Last Quarter
Nov 22
New

Hourly Weather History & Observations

Time (EDT) Temp. Dew Point Humidity Pressure Visibility Wind Dir Wind Speed Gust Speed Precip Events Conditions
12:53 AM 53.1 °F 50.0 °F 89% 30.06 in 10.0 mi Calm Calm - N/A   Clear
1:53 AM 52.0 °F 48.9 °F 89% 30.05 in 10.0 mi Calm Calm - N/A   Clear
2:53 AM 52.0 °F 50.0 °F 93% 30.05 in 10.0 mi Calm Calm - N/A   Clear
3:53 AM 51.1 °F 48.9 °F 92% 30.05 in 10.0 mi Calm Calm - N/A   Clear
4:53 AM 51.1 °F 48.9 °F 92% 30.04 in 10.0 mi Calm Calm - N/A   Clear
5:53 AM 52.0 °F 48.9 °F 89% 30.06 in 10.0 mi Calm Calm - N/A   Clear
6:53 AM 52.0 °F 48.9 °F 89% 30.07 in 10.0 mi Calm Calm - N/A   Clear
7:53 AM 50.0 °F 46.9 °F 89% 30.07 in 10.0 mi Calm Calm - N/A   Clear
8:53 AM 54.0 °F 51.1 °F 90% 30.09 in 10.0 mi Calm Calm - N/A   Clear
9:53 AM 61.0 °F 53.1 °F 75% 30.09 in 10.0 mi Calm Calm - N/A   Clear
10:53 AM 68.0 °F 51.1 °F 55% 30.09 in 10.0 mi Calm Calm - N/A   Clear
11:53 AM 71.1 °F 48.9 °F 45% 30.08 in 10.0 mi Variable 3.5 mph - N/A   Clear
12:53 PM 72.0 °F 44.1 °F 37% 30.06 in 10.0 mi Variable 3.5 mph - N/A   Clear
1:53 PM 75.0 °F 43.0 °F 32% 30.03 in 10.0 mi Calm Calm - N/A   Clear
2:53 PM 75.0 °F 45.0 °F 34% 30.00 in 10.0 mi Calm Calm - N/A   Clear
3:53 PM 75.0 °F 44.1 °F 33% 30.00 in 10.0 mi WSW 4.6 mph - N/A   Clear
4:53 PM 75.9 °F 46.0 °F 35% 29.99 in 10.0 mi WNW 4.6 mph - N/A   Clear
5:53 PM 73.9 °F 46.0 °F 37% 30.01 in 10.0 mi West 4.6 mph - N/A   Clear
6:53 PM 66.9 °F 55.0 °F 66% 30.00 in 10.0 mi Calm Calm - N/A   Clear
7:53 PM 61.0 °F 52.0 °F 72% 30.01 in 10.0 mi Calm Calm - N/A   Clear
8:53 PM 57.0 °F 52.0 °F 83% 30.03 in 10.0 mi NW 3.5 mph - N/A   Clear
9:53 PM 55.0 °F 51.1 °F 86% 30.04 in 10.0 mi Calm Calm - N/A   Clear
10:53 PM 57.0 °F 52.0 °F 83% 30.05 in 10.0 mi NW 3.5 mph - N/A   Clear
11:53 PM 53.1 °F 50.0 °F 89% 30.04 in 10.0 mi Calm Calm - N/A   Clear